sat.trackr.live / text

‹ back to catalog

STARLINK-31365

NORAD 58973 · 2024-031J

PAYLOAD ACTIVE UNKNOWN

§ Identity

Operator
Country
US
Launch date
2024-02-15
Launch site
AFWTR
Launch vehicle
Mass (kg)
RCS (m²)

Purposes: comms

External: N2YO · Heavens-Above · Gunter

§ Orbital elements

Epoch: 2026-09-20T19:56:41.004096Z

Period
93.85 min
Inclination
53.1573°
Eccentricity
0.0001356
Mean motion
15.34393336 rev/d
Perigee alt
461.8 km
Apogee alt
463.7 km
Semi-major
6,840.9 km
B*
4.6937e-5
RAAN
107.9093°
Arg perigee
90.5162°
Mean anomaly
269.5996°
Rev number
14,644

§ Raw data

STARLINK-313651 58973U 24031J   26263.83103014  .00001209  00000+0  46937-4 0  99952 58973  53.1573 107.9093 0001356  90.5162 269.5996 15.34393336146440

JSON: /api/v1/satellites/58973 · /tle

For live sub-satellite position, see the globe view (requires WebGL).

§ Visibility from observer

Set your observer location to see the next 7 days of passes ≥ 10°. The values pass through the URL so the page stays shareable.

No JS? Fill the form by hand. The geolocation button needs JavaScript.